Regional Weather Roundup
Issued by NWS Lake Charles, LA

Home | Current Version | Previous Version | Text Only | Print | Product List | Glossary On
Versions: 1 2 3 4 5 6 7 8 9 10 11 12 13 14 15 16 17 18 19 20 21 22 23 24 25 26 27 28 29 30 31 32 33 34 35 36 37 38 39 40 41 42 43 44 45 46 47 48 49 50
000
ASUS44 KLCH 230810
RWRLCH
REGIONAL WEATHER ROUNDUP
NATIONAL WEATHER SERVICE LAKE CHARLES LA
200 AM CST THU NOV 23 2017

Note: "fair" indicates few or no clouds below 12,000 feet with no
significant weather and/or obstructions to visibility.


ACROSS SOUTHEAST TEXAS

CITY           SKY/WX    TMP DP  RH WIND       PRES   REMARKS
BEAUMONT       PTCLDY    47  39  74 NE8       30.19S
BEAUMONT CITY  FAIR      46  39  77 NE5       30.20F
ORANGE         SUNNY     44  41  91 N3        30.21F
JASPER         CLEAR     39  38  99 CALM      30.23S FOG
$$

ACROSS CENTRAL LOUISIANA

CITY           SKY/WX    TMP DP  RH WIND       PRES   REMARKS
LEESVILLE      NOT AVBL
FULLERTON      FAIR      39  32  76 VRB3      30.17F
ALEXANDRIA INT CLEAR     37  30  75 NE5       30.19F
ESLER FIELD    CLEAR     33  30  88 CALM      30.20F
DERIDDER       FAIR      39  35  86 CALM      30.21F
OAKDALE        SUNNY     33  31  92 CALM      30.20F
OPELOUSAS      FAIR      38  31  74 N8        30.18S
$$

ACROSS SOUTHWEST AND SOUTH CENTRAL LOUISIANA

CITY           SKY/WX    TMP DP  RH WIND       PRES   REMARKS
SULPHUR        SUNNY     45  37  71 N7        30.20F
LAKE CHARLES   CLEAR     45  35  68 NE9       30.19S
CHENNAULT INT  CLEAR     42  36  79 N5        30.20S
CAMERON PHI    SUNNY     48  36  61 NE16      30.19S
DEQUINCY       FAIR      38  37  96 CALM      30.20F
JENNINGS       FAIR      41  36  81 NW7       30.19R
LAFAYETTE      CLEAR     42  32  67 N8        30.16S
NEW IBERIA     CLEAR     44  31  60 N13       30.16R
ABBEVILLE      FAIR      42  32  69 N8        30.16R
PATTERSON      CLEAR     44  35  70 N9        30.13F
SALT POINT       N/A    N/A N/A N/A VRB6      30.11F
$$

SELECTED SITES ACROSS THE REGION

CITY           SKY/WX    TMP DP  RH WIND       PRES   REMARKS
HOUSTON BUSH   CLEAR     47  36  65 N7        30.21F
HOUSTON HOBBY  CLEAR     48  37  65 N9        30.20F
GALVESTON      NOT AVBL
COLLEGE STAT   CLOUDY    42  30  62 N5        30.23F
CONROE         CLEAR     42  35  76 N5        30.21F
HUNTSVILLE     CLOUDY    39  33  79 CALM      30.22F
LUFKIN         CLEAR     37  35  92 CALM      30.22F
SHREVEPORT     CLOUDY    37  32  82 CALM      30.22F
MONROE         CLEAR     32  26  78 NE5       30.23F WCI  27
NATCHEZ MS     CLEAR     31  29  92 N3        30.20R
BATON ROUGE    CLEAR     40  30  67 N5        30.15S
N.O. INTL ARPT PTCLDY    50  37  61 N10       30.11F
SLIDELL        CLEAR     41  35  79 N7        30.10F
$$

MARINE REPORTS

STATION/POSITION TIME  SKY/WX   TEMP    WIND        PRES    VSBY
                                AIR SEA DIR/SP/G
                 (UTC)          (F)     (DEG/KT/KT) (MB)    (MI)
BUOY 30 S HIGH I 0650            59 69  360/ 16/ 17 1021.4
WVE H/P(F/S)=  3/ 5

SEA RIM ST PARK  0800            48      20/  8/  9 1022.6F
PORT ARTHUR      0742            50 64   30/  9/ 12 1022.5S
SABINE PASS N    0742            51 65   10/ 12/ 16 1023.8S
TEXAS POINT      NOT AVBL
CALCASIEU PASS   0742            48 63   40/ 10/ 15 1020.8R
LK CHARLES BEACH 0742            45 66              1022.0F
MARSH ISLAND     0700            51                   N/A
FRESH WATER LOCK 0742            46 63  360/ 10/ 14 1020.4F
AMERADA PASS     0742            46 58   10/  5/ 10 1019.7F
$$



USA.gov is the U.S. government's official web portal to all federal, state and local government web resources and services.